Date,TemperatureHighF,TemperatureAvgF,TemperatureLowF,DewpointHighF,DewpointAvgF,DewpointLowF,HumidityHigh,HumidityAvg,HumidityLow,PressureMaxIn,PressureMinIn,WindSpeedMaxMPH,WindSpeedAvgMPH,GustSpeedMaxMPH,PrecipitationSumIn
2013-1-1,78,64,54,66,60,52,94,82,62,29.95,29.95,13,0,18,0.00
2013-1-2,77,65,57,72,63,55,100,91,77,29.95,29.95,10,1,15,0.00
2013-1-3,80,69,58,71,66,57,100,89,63,29.95,29.95,14,0,21,0.00
2013-1-4,72,67,63,71,66,61,100,97,92,29.95,29.95,15,3,17,0.00
2013-1-5,80,66,61,74,64,61,100,92,78,29.95,29.95,10,2,14,0.00
2013-1-6,79,70,64,73,68,64,100,93,73,29.95,29.95,12,1,17,0.00
2013-1-7,73,68,66,70,67,64,100,96,85,29.95,29.95,11,2,12,0.00
2013-1-8,72,67,66,71,65,64,98,93,92,29.95,29.95,11,1,15,0.00
2013-1-9,81,73,68,74,70,66,100,88,71,29.95,29.95,14,2,18,0.00
2013-1-10,82,72,64,71,67,60,100,81,57,29.95,29.95,16,1,19,0.00
2013-1-11,81,69,62,72,65,60,100,84,57,29.95,29.95,11,0,16,0.00
2013-1-12,81,75,64,72,68,62,96,77,65,29.95,29.95,13,0,16,0.00
2013-1-13,80,77,65,72,69,58,86,70,62,29.95,29.95,12,1,13,0.00
2013-1-14,79,68,60,69,63,57,94,80,61,29.95,29.95,15,0,15,0.00
2013-1-15,71,64,58,67,59,52,100,79,65,29.95,29.95,2,0,4,0.00
2013-1-16,82,69,59,69,64,57,99,82,55,29.95,29.95,13,1,21,0.00
2013-1-17,78,66,61,72,63,53,100,85,69,29.95,29.95,16,4,25,0.00
2013-1-18,61,58,48,58,51,41,94,74,66,29.95,29.95,0,0,0,0.00
2013-1-19,73,64,58,67,63,56,100,92,76,29.95,29.95,10,0,12,0.00
2013-1-20,75,67,64,70,66,63,100,93,75,29.95,29.95,8,0,9,0.00
2013-1-21,67,66,61,65,64,58,93,90,90,29.95,29.95,12,1,18,0.00
2013-1-22,68,61,56,58,54,45,93,73,57,29.95,29.95,13,3,18,0.00
2013-1-23,70,58,51,55,47,41,68,59,43,29.95,29.95,8,0,12,0.00
2013-1-24,72,57,46,54,48,42,86,65,36,29.95,29.95,10,0,13,0.00
2013-1-25,75,60,47,60,52,44,90,72,50,29.95,29.95,7,0,11,0.00
2013-1-26,75,63,54,59,54,49,84,68,42,29.95,29.95,0,0,0,0.00
2013-1-27,76,61,55,63,54,43,90,73,50,29.95,29.95,4,0,7,0.00
2013-1-28,80,69,60,68,62,58,93,75,58,29.95,29.95,12,0,16,0.00
2013-1-29,63,62,61,62,61,58,99,96,81,29.95,29.95,16,1,20,0.00
2013-1-30,64,64,62,62,60,54,99,84,63,29.95,29.95,2,0,5,0.00
2013-1-31,64,62,52,63,56,43,98,77,47,29.95,29.95,0,0,0,0.00